Regional Weather Roundup
Issued by NWS Newport/Morehead, NC

Current Version | Previous Version | Graphics & Text | Print | Product List | Glossary Off
Versions: 1 2 3 4 5 6 7 8 9 10 11 12 13 14 15 16 17 18 19 20 21 22 23 24 25 26 27 28 29 30 31 32 33 34 35 36 37 38 39 40 41 42 43 44 45 46 47 48 49 50

000
ASUS42 KMHX 191925
RWRMHX
WEATHER ROUNDUP FOR EASTERN NORTH CAROLINA
NATIONAL WEATHER SERVICE NEWPORT/MOREHEAD CITY NC
200 PM EST SUN NOV 19 2017

NOTE: "FAIR" INDICATES FEW OR NO CLOUDS BELOW 12,000 FEET
WITH NO SIGNIFICANT WEATHER AND/OR OBSTRUCTIONS TO VISIBILITY

NCZ015>017-031-032-045>047-102-103-192000-
NORTH COAST

CITY           SKY/WX    TMP DP  RH WIND       PRES   REMARKS
EDENTON        SUNNY     63  37  37 NW13G28   29.73F
ELIZABETH CITY SUNNY     62  37  39 W17G24    29.71S
KITTY HAWK     CLEAR     59  42  52 W12G18    29.68S
MANTEO         SUNNY     60  43  51 NW10G16   29.71R

$$

NCZ045>047-081-094-103-104-192000-
CENTRAL COAST

CITY           SKY/WX    TMP DP  RH WIND       PRES   REMARKS
FRISCO         SUNNY     62  46  55 NW12G20   29.70S

$$

NCZ095-097-098-100-101-192000-
SOUTHERN COAST

CITY           SKY/WX    TMP DP  RH WIND       PRES   REMARKS
BEAUFORT       SUNNY     62  43  49 N15       29.73R
CEDAR ISLAND   NOT AVBL
JACKSONVILLE   NOT AVBL
PINEY ISLAND   NOT AVBL
WILMINGTON     SUNNY     66  37  34 NW16      29.76F


$$

NCZ011>013-027>030-043-044-078>080-089-090>093-098-192000-
COASTAL PLAIN

CITY           SKY/WX    TMP DP  RH WIND       PRES   REMARKS
AHOSKIE        SUNNY     58  33  38 W5        29.75S
CLINTON        SUNNY     62  35  36 NW7G17    29.80S
ELIZABETHTOWN  NOT AVBL
GOLDSBORO      SUNNY     62  31  31 NW15G21   29.77S
GREENVILLE     SUNNY     61  34  36 NW10      29.79S
HAVELOCK       NOT AVBL
KENANSVILLE    NOT AVBL
KINSTON        SUNNY     61  32  33 NW13G21   29.78S
NEW BERN       SUNNY     61  37  41 NW17G24   29.75S
RICHLANDS      SUNNY     62  34  35 W13G20    29.77S
ROCKY MOUNT    SUNNY     60  31  33 W14G21    29.78S
WASHINGTON     SUNNY     60  30  31 NW7G20    29.75R
WHITEVILLE     SUNNY     63  32  30 NW7       29.80S

$$

AMZ130-135-150-152-154-156-158-170-250-252-270-ANZ085-086-088-633-658-670-192000-
MARINE OBSERVATIONS

STATION/POSITION TIME  TEMP    WIND        PRES    WAVE   SWELL
                       AIR SEA DIR/SP/G            HT/PER HT/PER
                 (UTC) (F)     (DEG/KT/KT) (MB)    (FT/S) (FT/S)
CHESAPEAKE LIGHT NOT AVBL
64 E VA BEACH    1850   57 62  310/ 21/ 25 1004.9    8/ 6
DUCK             1900   60 61  300/ 14/ 17 1005.0
2 E DUCK         1900      62                N/A     3/ 4
OREGON INLET     1900   59 58  300/ 15/ 20 1005.2
13E OREGON INLT  1848      63                N/A     4/ 8   3/ 8
HATTERAS CG      1900   59 61  310/ 18/ 20 1005.5
DIAMOND BUOY     1910   60 65  320/ 19/ 25 1006.0
CAPE LOOKOUT     1900          330/ 15/ 18 1006.9
BEAUFORT LAB     1900   61 61  330/ 11/ 15 1006.6
30 SE NEW RVR IN 1908   62 68  340/ 16/ 19 1007.2
30 SE NEW RVR IN 1900      68                N/A     8/ 8   2/11
27 SE WRIGHTSVLE 1908   63 68  310/ 17/ 25 1007.2
5 SE WRIGHTSVLE  1908   63 64  320/ 12/ 19 1007.6
225 S CAPE HAT   1850   76 77  230/ 27/ 33 1006.7    9/ 7
41 SE CHARLESTON 1900   64 74  310/ 16/ 19 1009.5

$$




USA.gov is the U.S. government's official web portal to all federal, state and local government web resources and services.